Regional Weather Roundup
Issued by NWS

Home | Current Version | Previous Version | Graphics & Text | Print | Product List | Glossary On
Versions: 1 2 3 4 5 6 7 8 9 10 11 12 13 14 15 16 17 18 19 20 21 22 23 24 25 26 27 28 29 30 31 32 33 34 35 36 37 38 39 40 41 42 43 44 45 46 47 48 49 50
287
ASUS43 KLOT 291609
RWRIL

ILLINOIS REGIONAL WEATHER ROUNDUP
NATIONAL WEATHER SERVICE CHICAGO/ROMEOVILLE IL
1100 AM CDT MON MAY 29 2017

NOTE: "FAIR" INDICATES FEW OR NO CLOUDS BELOW 12,000 FEET WITH NO
SIGNIFICANT WEATHER AND/OR OBSTRUCTIONS TO VISIBILITY.

* THESE STATIONS ARE NOT UNDER NWS QUALITY CONTROL. THEY ALSO MAY NOT
  REPORT WEATHER SUCH AS PRECIPITATION OR FOG.

ILZ001-002-007-009-015-016-024-291700-
NORTHWEST ILLINOIS

CITY           SKY/WX    TMP DP  RH WIND       PRES   REMARKS
MOLINE         SUNNY     70  47  43 NW13      29.88R
STERLING*      SUNNY     70  50  49 W21       29.86R
SAVANNA*       SUNNY     67  48  50 W8        29.86R
$$

ILZ003-004-008-010-011-017-018-291700-
NORTH CENTRAL ILLINOIS

CITY           SKY/WX    TMP DP  RH WIND       PRES   REMARKS
ROCKFORD       MOSUNNY   70  48  45 NW18      29.84R
FREEPORT*      SUNNY     65  50  56 W14G22    29.85S
ROCHELLE*      SUNNY     69  47  45 W18       29.84S
DE KALB*       SUNNY     70  49  47 W15G26    29.84S
PERU*          PTSUNNY   69  47  45 W15G21    29.87R
$$

ILZ005-006-012>014-019>023-291700-
NORTHEAST ILLINOIS

CITY           SKY/WX    TMP DP  RH WIND       PRES   REMARKS
CHICAGO-OHARE  MOSUNNY   72  46  39 W17G26    29.81S
CHICAGO-MIDWAY MOSUNNY   74  46  36 W14G26    29.82S
AURORA         SUNNY     72  47  40 W16       29.84S
LANSING*       SUNNY     74  52  47 W14       29.84S
JOLIET*        PTSUNNY   75  48  38 W10       29.85S
WAUKEGAN       SUNNY     72  45  37 SW13G29   29.77S
DUPAGE AIRPORT MOSUNNY   71  49  45 W17G23    29.82S
KANKAKEE*      SUNNY     76  49  37 W15G22    29.87R
WHEELING       SUNNY     72  45  37 W16G25    29.81S
MORRIS*        CLOUDY    72  45  38 W13       29.84R
ROMEOVILLE*    SUNNY     74  52  47 W10G17    29.84S
NORTHERLY ISL    N/A     73  41  31 NW14        N/A
$$

LMZ740>746-291700-
SOUTHERN LAKE MICHIGAN

STATION/POSITION SKY/WX   TEMP    WIND        PRES    VSBY  WAVE
                          AIR SEA DIR/SP/G                  HT/PER
                          (F)     (DEG/KT/KT) (MB)    (MI)  (FT/S)
SOUTHERN BUOY              52 47  230/ 10/ 10 1008.6R         1
WILMETTE HARBOR            66 55  250/ 16/ 23   N/A           1/ 2
HARRISON CRIB              71     260/ 16/ 20   N/A
BURNHAM HARBOR             72     280/  8/ 16   N/A
CALUMET HARBOR             73     220/  9/ 15 1009.6R
BURNS HARBOR               66     270/ 11/ 13 1010.8R
MICHIGAN CITY              65     250/ 13/ 14   N/A
MICHIGAN CITY 6N           63 56  270/ 10/ 10   N/A           1/ 2
ST. JOSEPH                 61 59  230/  8/ 10 1010.2          2/ 3
$$

ILZ025>027-034>036-040-047-049-050-058-095>099-291700-
WEST-CENTRAL ILLINOIS

CITY           SKY/WX    TMP DP  RH WIND       PRES   REMARKS
QUINCY         PTSUNNY   73  49  42 W14       29.94R
GALESBURG*     SUNNY     71  48  43 W10       29.90R
MACOMB*        PTSUNNY   71  49  45 NW12      29.95R
JACKSONVILLE*  SUNNY     76  54  46 NW12      29.93R
PITTSFIELD*    SUNNY     77  52  41 W9        29.94R
$$

ILZ028>032-037-038-041>044-048-051>054-059>061-291700-
CENTRAL ILLINOIS

CITY           SKY/WX    TMP DP  RH WIND       PRES   REMARKS
PONTIAC        SUNNY     75  48  38 W10G16    29.88R
BLOOMINGTON    SUNNY     76  48  37 W16G22    29.91R
DECATUR        SUNNY     77  48  35 SW14      29.91R
PEORIA         CLOUDY    74  48  39 SW10      29.89S
LACON*         PTSUNNY   72  49  43 NW8       29.87R
LINCOLN*       SUNNY     77  49  36 W5        29.91R
SPRINGFIELD    SUNNY     82  47  29 W16       29.91R HX  80
TAYLORVILLE    SUNNY     78  47  33 W9        29.93R
$$

ILZ033-039-045-046-055>057-062-063-291700-
EAST-CENTRAL ILLINOIS

CITY           SKY/WX    TMP DP  RH WIND       PRES   REMARKS
CHAMPAIGN      SUNNY     80  44  27 SW16G22   29.89R
RANTOUL*       SUNNY     80  47  31 SW15      29.88R
MATTOON        SUNNY     76  56  49 S12       29.92R
$$

ILZ079-100>102-291700-
SOUTHWEST ILLINOIS

CITY           SKY/WX    TMP DP  RH WIND       PRES   REMARKS
ALTON          MOSUNNY   75  55  50 SW9       29.96R
BELLEVILLE     SUNNY     78  56  46 SW9       29.97R
CAHOKIA*       SUNNY     78  54  43 VRB6      29.96R
SPARTA*        SUNNY     76  57  50 W6        29.99R
$$

ILZ064>066-069>071-074>076-080>082-084>086-088>090-092>094-291700-
SOUTH-CENTRAL ILLINOIS

CITY           SKY/WX    TMP DP  RH WIND       PRES   REMARKS
CARBONDALE     SUNNY     80  59  48 SW10      29.97R HX  81
CAIRO*         MOSUNNY   77  63  63 SW6       30.01R
EFFINGHAM*     SUNNY     76  62  61 SW8       29.96R
MARION         SUNNY     79  57  47 SW6       29.98R HX  80
MT. VERNON       N/A     78  60  53 SW14      29.96R
CENTRALIA*     SUNNY     76  60  57 SW12      29.95R
SALEM*         SUNNY     78  57  48 W9        29.95R
METROPOLIS*    SUNNY     79  63  57 SW7       30.01R HX  81
$$

ILZ067-068-072-073-078-083-087-091-291700-
SOUTHEAST ILLINOIS

CITY           SKY/WX    TMP DP  RH WIND       PRES   REMARKS
LAWRENCEVILLE  SUNNY     79  56  45 SW9       29.94R HX  80
FLORA*         SUNNY    N/A N/A N/A W9        29.94S
FAIRFIELD*     SUNNY     79  58  47 SW10      29.94R HX  80
HARRISBURG*    SUNNY     80  58  47 W9        29.98R HX  81
ROBINSON*      SUNNY     78  55  45 SW8       29.94R
CARMI*         SUNNY     80  57  46 SW10      29.96R HX  80
$$

ABBREVIATIONS USED IN REMARKS
   TC - TEMPERATURE IN CELSIUS
  WCI - WIND CHILL INDEX
   HX - HEAT INDEX
  VSB - VISIBILITY
$$





USA.gov is the U.S. government's official web portal to all federal, state and local government web resources and services.